Location: Unspecified
(0.0000°N, 0.0000°E)
Time: 13:25:08
(UTC+00:00)

ISS - Pass Details

Date: 20 August 2019
Orbit: 410 x 420 km, 51.6° (Epoch: 21 August)

Event Time Altitude Azimuth Distance (km) Brightness Sun altitude
Exits shadow 05:06:23 23° 226° (SW) 928 -2.5 -13.9°
Maximum altitude 05:08:17 69° 304° (NW) 441 -3.9 -13.5°
Drops below altitude 10° 05:11:34 10° 29° (NNE) 1,471 -0.4 -12.7°
Sets 05:13:39 0° 32° (NNE) 2,332 0.8 -12.2°
